User: anonymous   Login
Location: Buffign�court
(47.8126°N, 6.0176°E)
Time: 07:42:33
(UTC+00:00)
Language:

SPOT 5 - Orbit

View from above orbital plane
View from above orbital plane
View from above satellite
View from above satellite

Ground track
Ground track

The orbit data is extracted from the following two-line orbital elements,

1 27421U 02021A   21268.05274223  .00000015  00000-0  14642-4 0  9992
2 27421  98.2224 336.7507 0134054 216.1225 143.0864 14.52120209 12186
Epoch (UTC): 25 September 2021 01:15:56
Eccentricity: 0.0134054
inclination: 98.2224°
perigee height: 623 km
apogee height: 814 km
right ascension of ascending node: 336.7507°
argument of perigee: 216.1225°
revolutions per day: 14.52120209
mean anomaly at epoch: 143.0864°
orbit number at epoch: 1218

The dashed part of the orbit path shows where the satellite is in the earth's shadow,  

DLR